Tracking 35280 objects as of 7-Sep-2026
HD Live streaming from Space Station
objects crossing your sky now

STARLINK-30101

Track STARLINK-30101 now!
10-day predictions
STARLINK-30101 is classified as:


NORAD ID: 56301
Int'l Code: 2023-056R
Launch date: April 19, 2023
Source: United States (US)
Launch site: AIR FORCE EASTERN TEST RANGE (AFETR)
Your satellite tracking list
Your tracking list is empty




NASA's NSSDC Master Catalog

Two Line Element Set (TLE):
1 56301U 23056R   26250.07658954  .00006465  00000-0  22041-3 0  9993
2 56301  43.0008 262.5642 0000439  93.4586 266.6317 15.30957417187863
Source of the keplerian elements: AFSPC